Weather in Syresi

Russia / Chuvash Republic     55°04′05″N   46°24′59″E
temp.,
°C
wind,
m/s
gust,
m/s
humid.,
%
clouds,
%
prec.,
mm/h
press.,
hPa
HPBL,
m
25 january, tue
tue2500:00−22sse2110071 0.0 10359
03:00−23ese1110092 0.0 10339
06:00−23se22100100 0.0 103110
09:00−21sse22100100 0.0 103032
12:00−13sse23915 0.0 1028121
15:00−13sse229369 0.0 102629
18:00−14sse229696 0.0 102431
21:00−16sse2297100 0.0 102340
26 january, wed
wed2600:00−18sse2210085 0.0 102117
03:00−13sse259778 0.2 1020120
06:00−14sse249794 0.1 101975
09:00−14sse249791 0.3 101984
12:00−11s349375 0.1 1018189
15:00−12s229662 0.1 101840
18:00−16s2210084 0.0 101816
21:00−19ssw2210090 0.1 101810
27 january, thu
thu2700:00−17ssw22100100 0.0 101825
03:00−17s1198100 0.0 101919
06:00−16s2199100 0.0 101819
09:00−14s2597100 0.0 1018108
12:00−11ssw489279 0.0 1018337
15:00−11s369350 0.0 1018181
18:00−17s249963 0.0 101943
21:00−19s2210089 0.0 101815
28 january, fri
fri2800:00−20sse22100100 0.0 101811
03:00−19se22100100 0.1 101720
06:00−15se2410099 0.1 101660
09:00−10sse4119585 0.1 1016291
12:00−8sse5119294 0.0 1015390
15:00−7sse5119286 0.0 1014423
18:00−11se3109781 0.0 1014172
21:00−13sse3109679 0.0 1013151
29 january, sat
sat2900:00−14se31096100 0.0 1012169
03:00−12se51193100 0.0 1011245
06:00−10se51295100 0.9 1009354
09:00−8sse51095100 1.9 1008378
12:00−6sse51095100 0.4 1007366
15:00−4s51096100 0.8 1006439
18:00−2ssw499698 0.7 1005339
21:00−3s3998100 0.9 1005305